Henderson, KY

6:12 AM CST on November 12, 2019 (GMT -0600)
Henderson City-County

Weather History for KEHR - June, 2019

Change the Weather History Date:

Sunday, June 2, 2019

  Actual Average Record
Temperature  
Mean Temperature 72 °F -  
Max Temperature 81 °F 81 °F 98 °F (1942)
Min Temperature 63 °F 60 °F 41 °F (1956)
Cooling Degree Days 7    
Growing Degree Days 22 (Base 50)    
Moisture  
Dew Point 61 °F    
Average Humidity 67    
Maximum Humidity 87    
Minimum Humidity 47    
Precipitation  
Precipitation 0.00 in - - ()
Sea Level Pressure  
Sea Level Pressure 29.89 in    
Wind  
Wind Speed 8 mph (WNW)    
Max Wind Speed 15 mph    
Max Gust Speed -    
Visibility 10 miles    
Events      
Averages and records for this station are not official NWS values.
T = Trace of Precipitation, MM = Missing Value Source: NWS Daily Summary

Daily Weather History Graph

Daily Weather History Graph

Search for Another Location

Airport or City:

Astronomy

Jun. 02, 2019 Rise Set
Actual Time 5:30 AM CDT 8:07 PM CDT
Civil Twilight 4:59 AM CDT 8:38 PM CDT
Nautical Twilight 4:21 AM CDT 9:16 PM CDT
Astronomical Twilight 3:38 AM CDT 9:59 PM CDT
Moon 5:07 AM CDT (6/2) 7:27 PM CDT (6/2)
Length of Visible Light 15h 39m
Length of Day
14h 37m
Waning Crescent, 1% of the Moon is Illuminated
Jun 2
Waning Crescent
Jun 3
New
Jun 10
First Quarter
Jun 17
Full
Jun 25
Last Quarter

Hourly Weather History & Observations

Time (CDT) Temp. Heat Index Dew Point Humidity Pressure Visibility Wind Dir Wind Speed Gust Speed Precip Events Conditions
12:56 AM 72.0 °F - 63.0 °F 73% 29.81 in 10.0 mi SW 5.8 mph - N/A   Partly Cloudy
1:56 AM 72.0 °F - 64.0 °F 76% 29.79 in 10.0 mi SSW 10.4 mph - N/A   Clear
2:56 AM 70.0 °F - 64.9 °F 84% 29.80 in 10.0 mi West 6.9 mph - N/A   Clear
3:56 AM 71.1 °F - 60.1 °F 68% 29.82 in 10.0 mi West 8.1 mph - N/A   Clear
4:56 AM 69.1 °F - 57.9 °F 68% 29.84 in 10.0 mi West 9.2 mph - N/A   Clear
5:56 AM 66.0 °F - 59.0 °F 78% 29.84 in 10.0 mi West 4.6 mph - N/A   Clear
6:56 AM 66.9 °F - 60.1 °F 79% 29.86 in 10.0 mi West 8.1 mph - N/A   Clear
7:56 AM 69.1 °F - 61.0 °F 75% 29.87 in 10.0 mi West 10.4 mph - N/A   Clear
8:56 AM 72.0 °F - 63.0 °F 73% 29.89 in 10.0 mi WNW 12.7 mph - N/A   Clear
9:56 AM 73.9 °F - 64.9 °F 73% 29.90 in 10.0 mi NW 11.5 mph - N/A   Clear
10:56 AM 75.9 °F - 64.9 °F 69% 29.91 in 10.0 mi WNW 5.8 mph - N/A   Clear
11:56 AM 79.0 °F - 66.9 °F 66% 29.90 in 10.0 mi West 8.1 mph - N/A   Clear
12:56 PM 80.1 °F 81.9 °F 64.9 °F 60% 29.90 in 10.0 mi NW 8.1 mph - N/A   Clear
1:56 PM 81.0 °F 82.7 °F 64.9 °F 58% 29.89 in 10.0 mi NNW 9.2 mph - N/A   Partly Cloudy
2:56 PM 81.0 °F 82.2 °F 63.0 °F 54% 29.89 in 10.0 mi WNW 15.0 mph - N/A   Partly Cloudy
3:56 PM 81.0 °F 81.6 °F 60.1 °F 49% 29.89 in 10.0 mi NNW 9.2 mph - N/A   Partly Cloudy
4:56 PM 81.0 °F 81.7 °F 61.0 °F 50% 29.90 in 10.0 mi North 6.9 mph - N/A   Partly Cloudy
5:56 PM 79.0 °F - 57.9 °F 48% 29.91 in 10.0 mi NNW 10.4 mph - N/A   Clear
6:56 PM 77.0 °F - 55.0 °F 47% 29.92 in 10.0 mi NNW 9.2 mph - N/A   Clear
7:56 PM 75.0 °F - 55.0 °F 50% 29.93 in 10.0 mi NNW 3.5 mph - N/A   Clear
8:56 PM 72.0 °F - 55.0 °F 55% 29.94 in 10.0 mi NNW 4.6 mph - N/A   Clear
9:56 PM 66.0 °F - 59.0 °F 78% 29.96 in 10.0 mi Calm Calm - N/A   Clear
10:56 PM 63.0 °F - 59.0 °F 87% 29.97 in 10.0 mi WSW 3.5 mph - N/A   Clear
11:56 PM 63.0 °F - 59.0 °F 87% 29.98 in 10.0 mi Calm Calm - N/A   Clear